Location: Staunton
(38.1490°N, 79.0720°W)
Time: 21:49:54
(UTC-05:00)

ISS - Pass Details

Date: 23 February 2020
Orbit: 415 x 423 km, 51.6° (Epoch: 27 February)

Event Time Altitude Azimuth Distance (km) Brightness Sun altitude
Exits shadow 04:33:52 15° 111° (ESE) 1,229 -0.8 -28.8°
Drops below altitude 10° 04:35:11 10° 89° (E) 1,496 0.0 -28.6°
Sets 04:37:50 0° 67° (ENE) 2,366 1.2 -28.0°
